Location: Newark
(41.8083°N, 72.2500°W)
Time: 11:33:14
(UTC+00:00)

Altair - Pass Details

Date: 09 December 2021
Orbit: 1501 x 1683 km, 47.2° (Epoch: 27 January)

Event Time Altitude Azimuth Distance (km) Brightness Sun altitude
Rises 01:48:21 0° 296° (WNW) 4,673 10.7 -49.4°
Reaches altitude 10° 01:51:33 10° 291° (WNW) 3,674 10.0 -50.0°
Enters shadow 01:56:13 31° 272° (W) 2,411 8.7 -50.8°
